Regional Weather Roundup
Issued by NWS Grand Forks, ND

Home | Current Version | Previous Version | Text Only | Print | Product List | Glossary On
Versions: 1 2 3 4 5 6 7 8 9 10 11 12 13 14 15 16 17 18 19 20 21 22 23 24 25 26 27 28 29 30 31 32 33 34 35 36 37 38 39 40 41 42 43 44 45 46 47 48 49 50
442
ASUS43 KFGF 291210
RWRFGF
PRAIRIE TO PINES  WEATHER ROUNDUP
NATIONAL WEATHER SERVICE EASTERN NORTH DAKOTA/GRAND FORKS ND
700 AM CDT WED MAR 29 2017

 **SATELLITE DATA USED TO AUGMENT SKY COVER AT AUTOMATED STATIONS**
 *****  WEATHER ACROSS EASTERN NORTH DAKOTA  *****

CITY           SKY/WX    TMP DP  RH WIND       PRES   REMARKS
GRAND FORKS    MOCLDY    33  31  92 CALM      30.17S
6HR MIN TEMP:  30; 6HR MAX TEMP:  36;

GRAND FRKS AFB FAIR      30  30 100 SW3       30.17R
DEVILS LAKE    CLOUDY    36  35  96 S6        30.15S
6HR MIN TEMP:  33; 6HR MAX TEMP:  36;

FARGO          FAIR      37  33  85 SE6       30.16F
WAHPETON ARPT  FAIR      36  32  87 E7        30.18S
$$

 ***** WEATHER ACROSS CENTRAL AND WESTERN NORTH DAKOTA  *****

CITY           SKY/WX    TMP DP  RH WIND       PRES   REMARKS
BISMARCK       FAIR      35  34  96 E5        30.14S
6HR MIN TEMP:  34; 6HR MAX TEMP:  49;

MINOT          MOCLDY    45  41  86 SW9       30.06S
6HR MIN TEMP:  40; 6HR MAX TEMP:  46;

JAMESTOWN      FOG       32  32 100 CALM      30.15S VSB 1/4
6HR MIN TEMP:  31; 6HR MAX TEMP:  38;

MINOT AFB      CLOUDY    38  37  99 SW3       30.05S
GARRISON         N/A     38  36  92 CALM      30.09R
WILLISTON      FOG       32  32 100 SW5       30.06S VSB 1/4
6HR MIN TEMP:  31; 6HR MAX TEMP:  35;

DICKINSON      FOG       38  38 100 S12       30.06S VSB 1/2
6HR MIN TEMP:  34; 6HR MAX TEMP:  44;

HETTINGER      FOG       36  35  96 CALM      30.12S VSB 1/4
6HR MIN TEMP:  36; 6HR MAX TEMP:  44;

$$

 *****  OTHER AIRPORT OBSERVATIONS IN OUR AREA  *****

CITY           SKY/WX    TMP DP  RH WIND       PRES   REMARKS
WALHALLA       NOT AVBL
GRAFTON AIRPOR FAIR      32  32 100 SE6       30.19S
VALLEY CITY AR FAIR      37  37 100 CALM      30.17S
CANDO          NOT AVBL
CAVALIER APRT  FAIR      30  30 100 S3        30.15F FOG
GWINNER        FOG       37  37 100 MISG      30.16S VSB 1/4
SHEYENNE NWR     N/A     32  32 100 CALM      29.95S
ROLLA          PTSUNNY   34  34 100 S10       30.10S
 ***** THE ABOVE OBSERVATIONS ARE NON NWS ARE NOT QUALITY
       CONTROLLED AND MAY MIS-REPORT RAIN FOR SNOW...
$$

  *****  WEATHER ACROSS NORTHERN MINNESOTA  *****

CITY           SKY/WX    TMP DP  RH WIND       PRES   REMARKS
FLAG ISLAND    FAIR      34  23  64 E8        30.22F
WARROAD        FAIR      34  30  86 E7        30.21F
ROSEAU         FAIR      37  30  75 SE6       30.19F
HALLOCK        FAIR      34  30  86 CALM      30.18S
THF RVR FALLS  FAIR      36  28  73 E8        30.19S
6HR MIN TEMP:  35; 6HR MAX TEMP:  40;

BAUDETTE       MOCLDY    33  26  75 SE10      30.23S WCI  25
6HR MIN TEMP:  31; 6HR MAX TEMP:  36;

WASKISH        FAIR      34  27  75 E7        30.23S
CROOKSTON      FAIR      36  30  80 CALM      30.19R
GREENBUSH NDAW   N/A     36  30  80 S2          N/A
$$
  *****  WEATHER ACROSS CENTRAL AND WEST MINNESOTA  *****

CITY           SKY/WX    TMP DP  RH WIND       PRES   REMARKS
FOSSTON        FAIR      37  28  70 E5        30.18F
BEMIDJI        FAIR      33  27  79 E6        30.22S
PARK RAPIDS    FAIR      37  25  61 SE5       30.20S
6HR MIN TEMP:  31; 6HR MAX TEMP:  40;

ELBOW LAKE     FAIR      39  33  79 CALM      30.18S
6HR MIN TEMP:  38; 6HR MAX TEMP:  45;

WADENA         FAIR      36  27  69 E3        30.20S
DETROIT LAKES  FAIR      39  30  70 SE6       30.20S
MOORHEAD       FAIR      37  32  81 SE6       30.17F
FERGUS FALLS   FAIR      39  30  70 E6        30.22R
MORRIS MN      FAIR      37  30  75 E8        30.17R
STAPLES        FAIR      34  27  75 E3        30.21S
$$
  *****  WEATHER ELSEWHERE ACROSS MINNESOTA  *****

CITY           SKY/WX    TMP DP  RH WIND       PRES   REMARKS
DULUTH         FAIR      32  27  81 E16       30.28S WCI  21
6HR MIN TEMP:  32; 6HR MAX TEMP:  36;

INTRNTL FALLS  MOCLDY    32  25  75 E6        30.28R
6HR MIN TEMP:  31; 6HR MAX TEMP:  37;

ELY            FAIR      25  21  86 CALM      30.30R
CLOQUET        FAIR      32  27  80 E9G17     30.28S WCI  24
WHEATON        FOG       34  34 100 CALM      30.20R VSB 1/4
BRAINERD       FAIR      32  28  85 NE6       30.23S
6HR MIN TEMP:  30; 6HR MAX TEMP:  38;

HIBBING        FAIR      25  24  96 CALM      30.27R
6HR MIN TEMP:  25; 6HR MAX TEMP:  33;

ALEXANDRIA     FAIR      39  29  67 E8        30.19S
6HR MIN TEMP:  35; 6HR MAX TEMP:  40;

SAINT CLOUD    FAIR      35  29  78 E8        30.21S
6HR MIN TEMP:  32; 6HR MAX TEMP:  40;

MINNEAPOLIS    CLOUDY    45  32  60 E8        30.21R
6HR MIN TEMP:  42; 6HR MAX TEMP:  47;

$$

  *****  WEATHER ACROSS SOUTH DAKOTA  *****

CITY           SKY/WX    TMP DP  RH WIND       PRES   REMARKS
SIOUX FALLS    CLOUDY    41  38  89 NE5       30.14R
6HR MIN TEMP:  40; 6HR MAX TEMP:  44;

BROOKINGS      MOCLDY    38  33  82 NE5       30.15R
WATERTOWN      FAIR      37  34  89 CALM      30.15R
6HR MIN TEMP:  36; 6HR MAX TEMP:  45;

HURON          FAIR      39  37  92 E3        30.14R
6HR MIN TEMP:  39; 6HR MAX TEMP:  44;

SISSETON         N/A     34  33  96 CALM      30.16S
ABERDEEN       FAIR      35  31  85 N3        30.16R
6HR MIN TEMP:  35; 6HR MAX TEMP:  44;

MITCHELL       FAIR      41  37  86 E6        30.13S
PIERRE         CLOUDY    43  41  93 SW3       30.13S
6HR MIN TEMP:  42; 6HR MAX TEMP:  45; 6HR PCP: TRACE;

MOBRIDGE       CLOUDY    43  38  82 CALM      30.13R
RAPID CITY     CLOUDY    39  37  92 CALM      30.11S
6HR MIN TEMP:  38; 6HR MAX TEMP:  42;

$$

  *****  SOME WEATHER IN NEARBY STATES *****

CITY           SKY/WX    TMP DP  RH WIND       PRES   REMARKS
GLASGOW MT     CLOUDY    40  28  62 CALM      30.01R
6HR MIN TEMP:  37; 6HR MAX TEMP:  42;

GREAT FALLS MT FAIR      38  26  62 SW10      30.05S
6HR MIN TEMP:  38; 6HR MAX TEMP:  41;

CHEYENNE WY    CLOUDY    35  33  92 N9        30.09S
6HR MIN TEMP:  34; 6HR MAX TEMP:  35; 6HR PCP: TRACE;

SCOTTSBLUFF NE CLOUDY    39  37  92 NW6       30.11R
6HR MIN TEMP:  39; 6HR MAX TEMP:  40;

OMAHA NE       LGT RAIN  47  42  83 NE13      30.02F
6HR MIN TEMP:  47; 6HR MAX TEMP:  49; 6HR PCP:  0.38;

DES MOINES IA  LGT RAIN  45  40  82 E9        30.10F
6HR MIN TEMP:  45; 6HR MAX TEMP:  49; 6HR PCP: TRACE;

DAVENPORT IA   CLOUDY    42  39  89 E16       30.17R
6HR MIN TEMP:  38; 6HR MAX TEMP:  43;

CHICAGO IL     FOG       35  33  92 NE7       30.24R VSB 3/4
6HR MIN TEMP:  35; 6HR MAX TEMP:  36;

EAU CLAIRE WI  FAIR      36  30  79 NE6       30.24S
6HR MIN TEMP:  32; 6HR MAX TEMP:  36;

LA CROSSE WI   FAIR      41  32  70 E6        30.23S
6HR MIN TEMP:  40; 6HR MAX TEMP:  45;

$$

  *****  SOME NATIONAL WEATHER *****

CITY           SKY/WX    TMP DP  RH WIND       PRES   REMARKS
LA GUARDIA NY  PTSUNNY   46  38  73 N8        30.04R
6HR MIN TEMP:  46; 6HR MAX TEMP:  49;

RALEIGH NC     FAIR      58  52  80 NE7       30.05R
6HR MIN TEMP:  55; 6HR MAX TEMP:  63;

ATLANTA GA     FAIR      63  54  72 NE6       30.03R
6HR MIN TEMP:  60; 6HR MAX TEMP:  66;

NEW ORLEANS LA MOCLDY    69  66  90 SE12      29.86S
6HR MIN TEMP:  69; 6HR MAX TEMP:  71;

OKLAHOMA CITY  CLOUDY    53  51  93 CALM      29.62R
6HR MIN TEMP:  52; 6HR MAX TEMP:  53; 6HR PCP:  0.79;

ALBUQUERQUE NM LGT RAIN  42  39  89 N7        29.92R
6HR MIN TEMP:  42; 6HR MAX TEMP:  45; 6HR PCP:  0.02;

SALT LAKE CITY FAIR      38  31  76 NE6       30.23S
6HR MIN TEMP:  36; 6HR MAX TEMP:  43;

LOS ANGELES CA FAIR      57  53  86 SE6       29.99F
6HR MIN TEMP:  55; 6HR MAX TEMP:  64;

BOISE ID       MOCLDY



USA.gov is the U.S. government's official web portal to all federal, state and local government web resources and services.